| time (UTC) | temp C | wind direction | speed KPH | gust KPH | rain 1hr cm | rain 24hr cm | rain mn cm | humidity % | barometer mb |
| 20260507094555 | 25 | 48 | 8.0 | 12.9 | 0.00 | 0.00 | 0.00 | 76 | 1011.4 |
| 20260507093057 | 26 | 65 | 6.4 | 14.5 | 0.00 | 0.00 | 0.00 | 78 | 1011.4 |
| 20260507091553 | 26 | 57 | 6.4 | 11.3 | 0.00 | 0.00 | 0.00 | 79 | 1011.4 |
| 20260507090050 | 26 | 98 | 11.3 | 14.5 | 0.00 | 0.00 | 0.00 | 79 | 1011.4 |
| 20260507084550 | 26 | 74 | 9.7 | 14.5 | 0.00 | 0.00 | 0.00 | 80 | 1011.3 |
| 20260507083104 | 26 | 72 | 4.8 | 12.9 | 0.00 | 0.00 | 0.00 | 80 | 1011.3 |
| 20260507081556 | 26 | 101 | 4.8 | 12.9 | 0.00 | 0.00 | 0.00 | 80 | 1011.3 |
| 20260507080043 | 26 | 61 | 6.4 | 12.9 | 0.00 | 0.00 | 0.00 | 80 | 1011.7 |
| 20260507074541 | 26 | 69 | 9.7 | 17.7 | 0.00 | 0.00 | 0.00 | 79 | 1012.0 |
| 20260507073052 | 26 | 79 | 11.3 | 19.3 | 0.00 | 0.00 | 0.00 | 79 | 1012.1 |
| 20260507071538 | 26 | 60 | 8.0 | 17.7 | 0.00 | 0.00 | 0.00 | 79 | 1012.0 |
| 20260507070040 | 26 | 92 | 9.7 | 19.3 | 0.00 | 0.00 | 0.00 | 79 | 1011.9 |
| 20260507064538 | 27 | 65 | 11.3 | 17.7 | 0.00 | 0.00 | 0.00 | 78 | 1011.9 |
| 20260507063033 | 27 | 68 | 8.0 | 17.7 | 0.00 | 0.00 | 0.00 | 77 | 1012.0 |
| 20260507061529 | 27 | 73 | 8.0 | 20.9 | 0.00 | 0.00 | 0.00 | 76 | 1012.0 |
| 20260507060024 | 27 | 83 | 12.9 | 20.9 | 0.00 | 0.00 | 0.00 | 75 | 1011.7 |
| 20260507054526 | 27 | 62 | 12.9 | 25.7 | 0.00 | 0.00 | 0.00 | 75 | 1011.4 |
| 20260507053022 | 28 | 124 | 12.9 | 32.2 | 0.00 | 0.00 | 0.00 | 74 | 1011.3 |
| 20260507051522 | 28 | 117 | 11.3 | 27.4 | 0.00 | 0.00 | 0.00 | 72 | 1011.4 |
| 20260507050031 | 28 | 144 | 9.7 | 19.3 | 0.00 | 0.00 | 0.00 | 70 | 1011.3 |
| 20260507044530 | 29 | 77 | 9.7 | 22.5 | 0.00 | 0.00 | 0.00 | 68 | 1011.3 |
| 20260507043016 | 29 | 65 | 11.3 | 24.1 | 0.00 | 0.00 | 0.00 | 66 | 1011.0 |
| 20260507041527 | 29 | 44 | 12.9 | 25.7 | 0.00 | 0.00 | 0.00 | 64 | 1011.0 |
| 20260507040011 | 30 | 78 | 9.7 | 17.7 | 0.00 | 0.00 | 0.00 | 62 | 1010.7 |
| 20260507034516 | 30 | 86 | 9.7 | 20.9 | 0.00 | 0.00 | 0.00 | 61 | 1010.6 |
| 20260507033008 | 30 | 95 | 9.7 | 19.3 | 0.00 | 0.00 | 0.00 | 59 | 1010.3 |
| 20260507031506 | 30 | 80 | 16.1 | 24.1 | 0.00 | 0.00 | 0.00 | 59 | 1010.0 |
| 20260507030005 | 30 | 63 | 11.3 | 17.7 | 0.00 | 0.00 | 0.00 | 58 | 1010.0 |
| 20260507024503 | 30 | 68 | 11.3 | 20.9 | 0.00 | 0.00 | 0.00 | 59 | 1009.6 |
| 20260507023001 | 30 | 61 | 12.9 | 27.4 | 0.00 | 0.00 | 0.00 | 59 | 1009.4 |
| 20260507021559 | 30 | 67 | 12.9 | 22.5 | 0.00 | 0.00 | 0.00 | 59 | 1009.1 |
| 20260507020109 | 31 | 78 | 20.9 | 29.0 | 0.00 | 0.00 | 0.00 | 58 | 1008.8 |
| 20260507014606 | 31 | 73 | 19.3 | 33.8 | 0.00 | 0.00 | 0.00 | 54 | 1008.6 |
| 20260507013055 | 32 | 70 | 14.5 | 29.0 | 0.00 | 0.00 | 0.00 | 50 | 1008.2 |
| 20260507011553 | 32 | 78 | 17.7 | 25.7 | 0.00 | 0.00 | 0.00 | 49 | 1007.9 |
| 20260507010051 | 32 | 86 | 14.5 | 27.4 | 0.00 | 0.00 | 0.00 | 49 | 1007.5 |
| 20260507004549 | 32 | 89 | 22.5 | 32.2 | 0.00 | 0.00 | 0.00 | 49 | 1007.3 |
| 20260507003048 | 32 | 78 | 19.3 | 29.0 | 0.00 | 0.00 | 0.00 | 48 | 1007.0 |
| 20260507001548 | 33 | 110 | 17.7 | 29.0 | 0.00 | 0.00 | 0.00 | 51 | 1006.7 |
| 20260507000045 | 33 | 75 | 17.7 | 33.8 | 0.00 | 0.00 | 0.00 | 50 | 1006.5 |
| 20260506234551 | 33 | 71 | 12.9 | 24.1 | 0.00 | 0.00 | 0.00 | 51 | 1006.4 |
| 20260506233045 | 33 | 55 | 19.3 | 29.0 | 0.00 | 0.00 | 0.00 | 53 | 1006.3 |
| 20260506231551 | 33 | 108 | 19.3 | 25.7 | 0.00 | 0.00 | 0.00 | 52 | 1006.3 |
| 20260506230052 | 33 | 60 | 12.9 | 29.0 | 0.00 | 0.00 | 0.00 | 51 | 1006.2 |
| 20260506224541 | 33 | 94 | 14.5 | 25.7 | 0.00 | 0.00 | 0.00 | 51 | 1006.2 |
| 20260506223050 | 33 | 77 | 17.7 | 27.4 | 0.00 | 0.00 | 0.00 | 51 | 1006.2 |
| 20260506221539 | 33 | 73 | 14.5 | 24.1 | 0.00 | 0.00 | 0.00 | 51 | 1006.3 |
| 20260506220038 | 33 | 63 | 14.5 | 24.1 | 0.00 | 0.00 | 0.00 | 51 | 1006.2 |
| 20260506214537 | 33 | 88 | 12.9 | 24.1 | 0.00 | 0.00 | 0.00 | 50 | 1006.3 |
| 20260506213042 | 34 | 70 | 8.0 | 22.5 | 0.00 | 0.00 | 0.00 | 49 | 1006.2 |
| 20260506211542 | 34 | 56 | 16.1 | 20.9 | 0.00 | 0.00 | 0.00 | 47 | 1006.3 |
| 20260506210033 | 34 | 62 | 12.9 | 17.7 | 0.00 | 0.00 | 0.00 | 47 | 1006.4 |
| 20260506204524 | 33 | 111 | 9.7 | 16.1 | 0.00 | 0.00 | 0.00 | 48 | 1006.6 |
| 20260506203027 | 33 | 123 | 8.0 | 17.7 | 0.00 | 0.00 | 0.00 | 49 | 1006.7 |
| 20260506201530 | 33 | 68 | 9.7 | 17.7 | 0.00 | 0.00 | 0.00 | 49 | 1006.7 |
| 20260506200013 | 33 | 105 | 11.3 | 17.7 | 0.00 | 0.00 | 0.00 | 52 | 1007.0 |
| 20260506194508 | 32 | 70 | 6.4 | 17.7 | 0.00 | 0.00 | 0.00 | 52 | 1007.1 |
| 20260506193008 | 32 | 65 | 9.7 | 20.9 | 0.00 | 0.00 | 0.00 | 53 | 1007.4 |
| 20260506191506 | 32 | 81 | 8.0 | 17.7 | 0.00 | 0.00 | 0.00 | 56 | 1007.5 |
| 20260506190005 | 32 | 66 | 9.7 | 20.9 | 0.00 | 0.00 | 0.00 | 56 | 1007.6 |
| 20260506184502 | 32 | 64 | 8.0 | 17.7 | 0.00 | 0.00 | 0.00 | 58 | 1007.8 |
| 20260506183105 | 31 | 122 | 8.0 | 16.1 | 0.00 | 0.00 | 0.00 | 60 | 1008.1 |
| 20260506181558 | 31 | 139 | 9.7 | 14.5 | 0.00 | 0.00 | 0.00 | 61 | 1008.4 |
| 20260506180056 | 30 | 60 | 9.7 | 17.7 | 0.00 | 0.00 | 0.00 | 62 | 1008.5 |
| 20260506174555 | 30 | 101 | 8.0 | 14.5 | 0.00 | 0.00 | 0.00 | 63 | 1008.5 |
| 20260506173053 | 30 | 101 | 11.3 | 16.1 | 0.00 | 0.00 | 0.00 | 64 | 1008.6 |
| 20260506171553 | 30 | 106 | 6.4 | 16.1 | 0.00 | 0.00 | 0.00 | 66 | 1008.6 |
| 20260506170107 | 30 | 75 | 6.4 | 11.3 | 0.00 | 0.00 | 0.00 | 63 | 1008.7 |
| 20260506164545 | 28 | 53 | 4.8 | 9.7 | 0.00 | 0.00 | 0.00 | 66 | 1008.7 |
| 20260506163054 | 28 | 77 | 6.4 | 11.3 | 0.00 | 0.00 | 0.00 | 70 | 1008.7 |
| 20260506161543 | 27 | 68 | 6.4 | 9.7 | 0.00 | 0.00 | 0.00 | 72 | 1008.7 |
| 20260506160041 | 27 | 73 | 6.4 | 9.7 | 0.00 | 0.00 | 0.00 | 74 | 1008.7 |
| 20260506154540 | 27 | 71 | 3.2 | 9.7 | 0.00 | 0.00 | 0.00 | 76 | 1008.7 |
| 20260506153034 | 26 | 53 | 3.2 | 9.7 | 0.00 | 0.00 | 0.00 | 79 | 1008.7 |
| 20260506151534 | 26 | 73 | 4.8 | 9.7 | 0.00 | 0.00 | 0.00 | 79 | 1008.8 |
| 20260506150030 | 25 | 53 | 4.8 | 9.7 | 0.00 | 0.00 | 0.00 | 80 | 1008.7 |
| 20260506144526 | 25 | 78 | 4.8 | 11.3 | 0.00 | 0.00 | 0.00 | 80 | 1008.7 |
| 20260506143031 | 25 | 92 | 6.4 | 11.3 | 0.00 | 0.00 | 0.00 | 80 | 1008.7 |
| 20260506141525 | 25 | 113 | 1.6 | 8.0 | 0.00 | 0.00 | 0.00 | 79 | 1008.6 |
| 20260506140023 | 24 | 74 | 3.2 | 8.0 | 0.00 | 0.00 | 0.00 | 80 | 1008.4 |
| 20260506134522 | 24 | 77 | 1.6 | 6.4 | 0.00 | 0.00 | 0.00 | 80 | 1008.4 |
| 20260506133020 | 24 | 90 | 1.6 | 4.8 | 0.00 | 0.00 | 0.00 | 80 | 1008.2 |
| 20260506131522 | 23 | 68 | 3.2 | 4.8 | 0.00 | 0.00 | 0.00 | 78 | 1008.1 |
| 20260506130020 | 23 | 86 | 3.2 | 4.8 | 0.00 | 0.00 | 0.00 | 69 | 1007.9 |
| 20260506124517 | 22 | 97 | 1.6 | 6.4 | 0.00 | 0.00 | 0.00 | 51 | 1007.7 |
| 20260506123014 | 22 | 226 | 0.0 | 1.6 | 0.00 | 0.00 | 0.00 | 48 | 1007.5 |
| 20260506121518 | 21 | 226 | 0.0 | 0.0 | 0.00 | 0.00 | 0.00 | 56 | 1007.2 |
| 20260506120009 | 21 | 226 | 0.0 | 3.2 | 0.00 | 0.00 | 0.00 | 59 | 1007.1 |
| 20260506114508 | 21 | 226 | 0.0 | 1.6 | 0.00 | 0.00 | 0.00 | 45 | 1007.1 |
| 20260506113016 | 22 | 214 | 1.6 | 4.8 | 0.00 | 0.00 | 0.00 | 55 | 1007.0 |
| 20260506111506 | 22 | 214 | 1.6 | 3.2 | 0.00 | 0.00 | 0.00 | 44 | 1007.0 |
| 20260506110008 | 21 | 273 | 0.0 | 0.0 | 0.00 | 0.00 | 0.00 | 41 | 1007.1 |
| 20260506104602 | 22 | 273 | 0.0 | 0.0 | 0.00 | 0.00 | 0.00 | 50 | 1006.7 |
| 20260506103117 | 22 | 271 | 1.6 | 4.8 | 0.00 | 0.00 | 0.00 | 52 | 1006.6 |
| 20260506101557 | 22 | 266 | 1.6 | 6.4 | 0.00 | 0.00 | 0.00 | 57 | 1006.5 |
| 20260506100056 | 22 | 224 | 1.6 | 4.8 | 0.00 | 0.00 | 0.00 | 61 | 1006.4 |